[[{"header":{"parameterUnit":"m.s-1","parameterCategory":1,"la1":30.2991,"la2":30.254,"lo1":-89.0895,"lo2":-89.0444,"dy":0.0017,"dx":0.0017,"nx":28,"ny":28,"refTime":"2024-03-28T09:00:00:Z","depth":0,"parameterNumber":2,"parameterNumberName":"U-component_of_WINDS"},"data":[0,0,0,0,0,0,0,0,0,0,0,0,0,0,0,0,0,0,0,0,0,0,0,0,0,0,0,0,0,0,0,0,0,0,0,0,0,0,0,0,0,0,0,0,0,0,0,0,0,0,0,0,0,0,0,0,0,0,-0.5683,-0.5683,0,-0.5733,-0.5734,-0.5734,-0.5697,-0.5695,-0.5693,-0.5692,-0.5745,-0.5748,-0.5751,0,0,0,0,0,0,0,0,0,0,0,0,0,-0.5556,-0.5559,-0.5683,-0.5683,-0.5684,-0.5733,-0.5734,-0.5734,-0.5697,-0.5695,-0.5693,-0.5691,-0.5744,-0.5748,-0.5751,0,0,0,0,0,0,0,0,0,0,0,0,0,-0.561,-0.556,-0.5683,-0.5671,-0.5671,-0.5733,-0.5734,-0.5735,-0.5697,-0.5695,-0.5693,-0.569,-0.5743,-0.5748,-0.5752,-0.5829,0,0,-0.5765,-0.5767,0,0,0,0,0,0,0,0,-0.5607,-0.5614,-0.5672,-0.5672,-0.5672,-0.5706,-0.5709,-0.5766,-0.5698,-0.5687,-0.5692,-0.5689,-0.5734,-0.5739,-0.5754,-0.5831,-0.5833,-0.5766,-0.5769,-0.577,-0.5772,0,0,0,0,0,0,0,-0.5603,-0.5612,-0.5703,-0.5673,-0.5673,-0.5664,-0.5669,-0.5719,-0.5724,-0.5688,-0.5686,-0.5692,-0.5734,-0.575,-0.5755,-0.5834,-0.5766,-0.577,-0.5772,-0.5774,-0.5977,-0.598,0,0,0,0,0,0,-0.56,-0.5609,-0.5701,-0.5704,-0.5632,-0.5669,-0.5674,-0.5698,-0.5724,-0.5725,-0.5694,-0.569,-0.5744,-0.575,-0.5757,-0.585,-0.577,-0.5775,-0.5777,-0.5975,-0.5978,-0.5981,0,0,0,0,0,0,-0.5597,-0.5609,-0.5699,-0.5656,-0.5667,-0.5673,-0.57,-0.57,-0.5716,-0.5728,-0.5729,-0.571,-0.5742,-0.5751,-0.5811,-0.5851,-0.5777,-0.5781,-0.5971,-0.5976,-0.5979,-0.6035,0,0,0,0,0,0,-0.5594,-0.5608,-0.5637,-0.5657,-0.5669,-0.5752,-0.5703,-0.5703,-0.5724,-0.5719,-0.5743,-0.5745,-0.5741,-0.5805,-0.5816,-0.5856,-0.5784,-0.5968,-0.5973,-0.5978,-0.603,-0.604,-0.605,0,0,0,0,0,-0.559,-0.5651,-0.5638,-0.565,-0.5705,-0.5755,-0.5762,-0.5756,-0.5727,-0.5757,-0.5764,-0.5744,-0.5844,-0.5811,-0.5823,-0.5865,-0.5965,-0.5972,-0.5978,-0.6025,-0.6038,-0.6049,0,0,0,0,0,0,-0.5636,-0.5653,-0.564,-0.5709,-0.5731,-0.5748,-0.5785,-0.577,-0.58,-0.5795,-0.5786,-0.5792,-0.5856,-0.5866,-0.5829,-0.5941,-0.59,-0.5909,-0.5932,-0.5945,-0.5955,-0.5952,-0.5788,0,0,0,0,0,-0.5654,-0.5692,-0.5705,-0.5765,-0.5776,-0.5779,-0.58,-0.5793,-0.5816,-0.5825,-0.5837,-0.586,-0.5896,-0.5921,-0.5955,-0.603,-0.6036,-0.6065,-0.6075,-0.6083,-0.6092,-0.6133,-0.6147,-0.6001,-0.6001,-0.6001,0,0,-0.5692,-0.5706,-0.5731,-0.5775,-0.579,-0.5831,-0.5787,-0.5831,-0.5861,-0.5832,-0.589,-0.5899,-0.5924,-0.5992,-0.6023,-0.6003,-0.6132,-0.6091,-0.6097,-0.6101,-0.6141,-0.6155,-0.6167,-0.6005,-0.6004,-0.6004,0,0,-0.5783,-0.5797,-0.5849,-0.5865,-0.589,-0.5891,-0.5903,-0.5923,-0.5928,-0.5986,-0.5965,-0.6,-0.6063,-0.6083,-0.61,-0.6198,-0.6181,-0.6209,-0.6262,-0.6303,-0.6314,-0.6324,-0.6361,-0.6374,-0.6217,-0.6217,-0.6217,0,-0.5828,-0.5887,-0.5878,-0.5924,-0.5944,-0.5918,-0.5971,-0.5988,-0.6022,-0.6037,-0.6014,-0.6093,-0.6108,-0.6181,-0.6204,-0.6219,-0.6234,-0.6207,-0.6313,-0.6323,-0.6333,-0.6367,-0.6381,-0.622,-0.622,-0.622,-0.6219,0,-0.5942,-0.5983,-0.6022,-0.6056,-0.608,-0.613,-0.6128,-0.6154,-0.6145,-0.6149,-0.6208,-0.6225,-0.6263,-0.6279,-0.6271,-0.6351,-0.6338,-0.6314,-0.6273,-0.635,-0.6383,-0.6395,-0.6225,-0.6224,-0.6223,-0.6222,0,0,-0.6065,-0.6092,-0.6107,-0.6122,-0.6147,-0.6179,-0.6227,-0.6263,-0.6286,-0.631,-0.6352,-0.6405,-0.6383,-0.6404,-0.6397,-0.6432,-0.651,-0.6404,-0.6404,-0.6425,-0.6601,-0.6621,-0.6636,-0.6498,-0.65,-0.6502,-0.66,0,-0.6159,-0.6242,-0.6235,-0.6315,-0.6353,-0.6329,-0.6371,-0.6391,-0.6395,-0.6429,-0.6434,-0.6473,-0.644,-0.6452,-0.6486,-0.6493,-0.6546,-0.6486,-0.6537,-0.6539,-0.6534,-0.6653,-0.6673,-0.6765,-0.6612,-0.6614,-0.6616,0,-0.6279,-0.6307,-0.6391,-0.641,-0.6426,-0.6464,-0.6497,-0.6529,-0.6551,-0.6552,-0.6574,-0.6562,-0.6611,-0.6567,-0.6636,-0.6595,-0.6615,-0.6622,-0.6626,-0.6632,-0.6584,-0.6664,-0.6793,-0.6808,-0.6635,-0.6634,-0.6632,0,-0.6363,-0.6422,-0.648,-0.6493,-0.6516,-0.6544,-0.6555,-0.6574,-0.6596,-0.6625,-0.664,-0.6674,-0.6693,-0.672,-0.6717,-0.6685,-0.6787,-0.6742,-0.679,-0.679,-0.6815,-0.6814,-0.6951,-0.6824,-0.6824,-0.6824,-0.6823,0,-0.6469,-0.6522,-0.6518,-0.6554,-0.6612,-0.6602,-0.6661,-0.6668,-0.6686,-0.6723,-0.6703,-0.6739,-0.6732,-0.6767,-0.6765,-0.6823,-0.6831,-0.6834,-0.6833,-0.6837,-0.6837,-0.6852,-0.6847,-0.6827,-0.6826,-0.6826,-0.6825,0,-0.6574,-0.6573,-0.6635,-0.6651,-0.6656,-0.6699,-0.6713,-0.6747,-0.6749,-0.6797,-0.6808,-0.6812,-0.6853,-0.6852,-0.6898,-0.6897,-0.6968,-0.6959,-0.6961,-0.696,-0.7008,-0.7005,-0.7162,-0.7183,-0.704,-0.7042,-0.7043,0,-0.6643,-0.6683,-0.6704,-0.6727,-0.674,-0.6777,-0.68,-0.6792,-0.6816,-0.6844,-0.6876,-0.6914,-0.6945,-0.7012,-0.7019,-0.7055,-0.7048,-0.71,-0.7053,-0.7056,-0.7051,-0.7049,-0.7054,-0.711,-0.7112,-0.7113,-0.7114,0,-0.6767,-0.6764,-0.6797,-0.683,-0.6858,-0.6883,-0.6907,-0.6927,-0.6922,-0.695,-0.6992,-0.7015,-0.7063,-0.7102,-0.7136,-0.7148,-0.7131,-0.7129,-0.7142,-0.7148,-0.7148,-0.715,-0.6989,-0.7126,-0.7125,-0.7124,-0.7123,-0.7123,-0.6857,-0.6892,-0.6912,-0.6949,-0.6966,-0.6988,-0.7022,-0.7028,-0.7062,-0.71,-0.7092,-0.7139,-0.716,-0.7204,-0.7219,-0.7255,-0.7237,-0.7256,-0.7261,-0.7266,-0.7273,-0.714,-0.7261,-0.7261,-0.726,-0.726,-0.726,0,-0.6981,-0.6993,-0.7027,-0.7061,-0.7091,-0.707,-0.7095,-0.7122,-0.7163,-0.7184,-0.7214,-0.7262,-0.73,-0.731,-0.7346,-0.7374,-0.7367,-0.7384,-0.7383,-0.7386,-0.7286,-0.7272,-0.7389,-0.7389,-0.7389,-0.7389,-0.7389,-0.7389,-0.705,-0.7108,-0.7107,-0.7174,-0.7184,-0.723,-0.7246,-0.7267,-0.7283,-0.7337,-0.7369,-0.7374,-0.7391,-0.7428,-0.7462,-0.7464,-0.748,-0.75,-0.7499,-0.7406,-0.7393,-0.7381,-0.7368,-0.7503,-0.7503,-0.7597,-0.7598,-0.7598]},{"header":{"parameterUnit":"m.s-1","parameterCategory":1,"la1":30.2991,"la2":30.254,"lo1":-89.0895,"lo2":-89.0444,"dy":0.0017,"dx":0.0017,"nx":28,"ny":28,"refTime":"2024-03-28T09:00:00:Z","depth":0,"parameterNumber":3,"parameterNumberName":"V-component_of_WINDS"},"data":[0,0,0,0,0,0,0,0,0,0,0,0,0,0,0,0,0,0,0,0,0,0,0,0,0,0,0,0,0,0,0,0,0,0,0,0,0,0,0,0,0,0,0,0,0,0,0,0,0,0,0,0,0,0,0,0,0,0,-2.7116,-2.7117,0,-2.7227,-2.7228,-2.7229,-2.7216,-2.7215,-2.7213,-2.7211,-2.7323,-2.7327,-2.7332,0,0,0,0,0,0,0,0,0,0,0,0,0,-2.6892,-2.6896,-2.7116,-2.7117,-2.7119,-2.7227,-2.7228,-2.723,-2.7217,-2.7214,-2.7212,-2.721,-2.7321,-2.7327,-2.7332,0,0,0,0,0,0,0,0,0,0,0,0,0,-2.6995,-2.6897,-2.7116,-2.7125,-2.7127,-2.7226,-2.7228,-2.723,-2.7217,-2.7214,-2.7212,-2.7209,-2.7319,-2.7326,-2.7333,-2.7429,0,0,-2.7354,-2.7357,0,0,0,0,0,0,0,0,-2.6989,-2.7003,-2.7122,-2.7125,-2.7127,-2.7205,-2.719,-2.7297,-2.7218,-2.7183,-2.7211,-2.7208,-2.7286,-2.7295,-2.7322,-2.7434,-2.7439,-2.7355,-2.7359,-2.7362,-2.7364,0,0,0,0,0,0,0,-2.6982,-2.6998,-2.716,-2.7124,-2.7127,-2.7124,-2.7135,-2.721,-2.7248,-2.7186,-2.7185,-2.7198,-2.7286,-2.7315,-2.7324,-2.7441,-2.7354,-2.7361,-2.7365,-2.7368,-2.7639,-2.7641,0,0,0,0,0,0,-2.6972,-2.6992,-2.7156,-2.7163,-2.705,-2.713,-2.7143,-2.7183,-2.7247,-2.7254,-2.7201,-2.7197,-2.7304,-2.7316,-2.7328,-2.7446,-2.7362,-2.7368,-2.7372,-2.7636,-2.7639,-2.7643,0,0,0,0,0,0,-2.6968,-2.6987,-2.7152,-2.7078,-2.7098,-2.7137,-2.7181,-2.7186,-2.7215,-2.7258,-2.7265,-2.7223,-2.7303,-2.7318,-2.7404,-2.7449,-2.7371,-2.7378,-2.7632,-2.7637,-2.7641,-2.7681,0,0,0,0,0,0,-2.6961,-2.6986,-2.7023,-2.7078,-2.7102,-2.7227,-2.7184,-2.719,-2.7227,-2.7224,-2.7281,-2.7288,-2.7302,-2.7394,-2.7411,-2.7457,-2.7383,-2.7628,-2.7634,-2.7639,-2.7676,-2.7687,-2.7696,0,0,0,0,0,-2.6953,-2.7029,-2.7025,-2.7044,-2.715,-2.7229,-2.7243,-2.7258,-2.7231,-2.7269,-2.7296,-2.7286,-2.7442,-2.7403,-2.7422,-2.7471,-2.7625,-2.7632,-2.7639,-2.7672,-2.7684,-2.7695,0,0,0,0,0,0,-2.6976,-2.7036,-2.7032,-2.7128,-2.7174,-2.7227,-2.7275,-2.7271,-2.7325,-2.732,-2.7335,-2.7348,-2.7436,-2.7462,-2.7418,-2.7568,-2.753,-2.7541,-2.7548,-2.756,-2.757,-2.7562,-2.7389,0,0,0,0,0,-2.6993,-2.7053,-2.7102,-2.7182,-2.7205,-2.7236,-2.7271,-2.7279,-2.7327,-2.7346,-2.738,-2.7426,-2.7486,-2.7524,-2.7581,-2.768,-2.7692,-2.7723,-2.7732,-2.774,-2.775,-2.7805,-2.7819,-2.7665,-2.7665,-2.7665,0,0,-2.7027,-2.7067,-2.7104,-2.7188,-2.7224,-2.7286,-2.7252,-2.7319,-2.7365,-2.7356,-2.744,-2.7466,-2.7519,-2.7612,-2.7655,-2.7637,-2.7795,-2.7749,-2.7755,-2.776,-2.7813,-2.7828,-2.7841,-2.767,-2.7669,-2.7668,0,0,-2.7121,-2.7157,-2.7229,-2.7266,-2.7322,-2.7342,-2.7359,-2.7414,-2.7431,-2.7516,-2.7511,-2.7565,-2.7667,-2.7705,-2.7738,-2.7848,-2.784,-2.7865,-2.7917,-2.797,-2.7982,-2.7993,-2.8033,-2.8047,-2.7875,-2.7875,-2.7875,0,-2.7157,-2.725,-2.7265,-2.7334,-2.7371,-2.7366,-2.7438,-2.7474,-2.7545,-2.7571,-2.7549,-2.7678,-2.7713,-2.7815,-2.7842,-2.7868,-2.7889,-2.7859,-2.7979,-2.799,-2.8001,-2.8039,-2.8054,-2.7878,-2.7877,-2.7877,-2.7877,0,-2.7291,-2.7356,-2.7407,-2.7477,-2.752,-2.759,-2.7615,-2.7657,-2.7661,-2.7684,-2.777,-2.7812,-2.7878,-2.7903,-2.7907,-2.8006,-2.7993,-2.7976,-2.7938,-2.8018,-2.8054,-2.8069,-2.7882,-2.7881,-2.788,-2.7879,0,0,-2.7403,-2.7482,-2.75,-2.7532,-2.7594,-2.7644,-2.7714,-2.7779,-2.7815,-2.7864,-2.7923,-2.801,-2.7994,-2.8032,-2.804,-2.8087,-2.8172,-2.8064,-2.8065,-2.8083,-2.8285,-2.8299,-2.8315,-2.8168,-2.8171,-2.8173,-2.8281,0,-2.7504,-2.7628,-2.7644,-2.7754,-2.7815,-2.7812,-2.7872,-2.7917,-2.794,-2.7994,-2.8019,-2.8081,-2.8055,-2.8078,-2.8124,-2.8152,-2.8213,-2.8145,-2.8223,-2.8226,-2.8211,-2.8334,-2.8349,-2.8448,-2.8295,-2.8298,-2.8299,0,-2.7638,-2.7693,-2.7809,-2.7864,-2.789,-2.7944,-2.8006,-2.8058,-2.8108,-2.8122,-2.8164,-2.8167,-2.8239,-2.8198,-2.8297,-2.825,-2.8283,-2.8302,-2.8306,-2.8315,-2.8268,-2.8347,-2.8481,-2.8496,-2.8322,-2.832,-2.8318,0,-2.771,-2.7812,-2.7895,-2.7922,-2.7987,-2.8026,-2.8055,-2.8103,-2.8141,-2.8195,-2.822,-2.8281,-2.8315,-2.8362,-2.8381,-2.8349,-2.848,-2.844,-2.8493,-2.8493,-2.8522,-2.852,-2.8663,-2.8542,-2.8541,-2.8541,-2.8541,0,-2.7821,-2.7892,-2.7928,-2.7979,-2.8059,-2.8077,-2.8155,-2.8183,-2.8225,-2.8282,-2.8282,-2.8335,-2.8357,-2.8413,-2.8429,-2.851,-2.8524,-2.8537,-2.8541,-2.8538,-2.8537,-2.856,-2.8554,-2.8545,-2.8544,-2.8543,-2.8543,0,-2.7914,-2.794,-2.8031,-2.8086,-2.8101,-2.8158,-2.8205,-2.8254,-2.8277,-2.8348,-2.8366,-2.8401,-2.8468,-2.8492,-2.8572,-2.8583,-2.8677,-2.8674,-2.866,-2.8661,-2.8713,-2.8708,-2.8878,-2.8902,-2.8763,-2.8765,-2.8766,0,-2.7984,-2.8039,-2.81,-2.8138,-2.8169,-2.823,-2.827,-2.8289,-2.8331,-2.8393,-2.8435,-2.8501,-2.8555,-2.8662,-2.8694,-2.8756,-2.8755,-2.881,-2.8764,-2.876,-2.8757,-2.8754,-2.876,-2.8819,-2.882,-2.8822,-2.8823,0,-2.8105,-2.8116,-2.8173,-2.8236,-2.8284,-2.8334,-2.8382,-2.8413,-2.844,-2.8487,-2.8555,-2.8597,-2.868,-2.8746,-2.881,-2.8839,-2.8836,-2.8837,-2.8853,-2.8851,-2.8841,-2.8848,-2.8684,-2.8833,-2.8832,-2.8831,-2.8831,-2.883,-2.819,-2.8239,-2.829,-2.8354,-2.8393,-2.8439,-2.8488,-2.8518,-2.8575,-2.8645,-2.8653,-2.8727,-2.8776,-2.8861,-2.8893,-2.8951,-2.8936,-2.8959,-2.8965,-2.897,-2.8975,-2.8831,-2.8963,-2.8962,-2.8962,-2.8962,-2.8962,0,-2.8312,-2.8345,-2.8404,-2.8472,-2.8523,-2.8516,-2.857,-2.8613,-2.8678,-2.8725,-2.8778,-2.8857,-2.8922,-2.896,-2.9024,-2.9063,-2.9063,-2.9079,-2.9077,-2.9084,-2.8984,-2.8964,-2.9078,-2.9078,-2.9078,-2.9078,-2.9078,-2.9078,-2.8382,-2.8465,-2.8482,-2.8585,-2.8617,-2.869,-2.8721,-2.8763,-2.8801,-2.8889,-2.8943,-2.8968,-2.9011,-2.9079,-2.9138,-2.9147,-2.9171,-2.9189,-2.9197,-2.9103,-2.9091,-2.908,-2.9061,-2.9194,-2.9194,-2.9293,-2.9294,-2.9295]}]]